Regional Weather Roundup
Issued by NWS Kansas City/Pleasant Hill, MO

Home | Current Version | Previous Version | Text Only | Print | Product List | Glossary On
Versions: 1 2 3 4 5 6 7 8 9 10 11 12 13 14 15 16 17 18 19 20 21 22 23 24 25 26 27 28 29 30 31 32 33 34 35 36 37 38 39 40 41 42 43 44 45 46 47 48 49 50
993
ASUS43 KEAX 190410
RWREAX

WEATHER ROUNDUP FOR EASTERN KANSAS AND NORTHWEST MISSOURI
NATIONAL WEATHER SERVICE KANSAS CITY/PLEASANT HILL MO
1000 PM CST WED JAN 18 2017

KSZ040-057-103>105-MOZ028-029-037-043-190500-
...KANSAS CITY METROPOLITAN AREA...

CITY           SKY/WX    TMP DP  RH WIND       PRES   REMARKS
K.C. INTL      CLEAR     37  33  85 SE8       29.96S WCI  31
K.C. DOWNTOWN  MOCLDY    40  37  89 CALM      29.97S
LEES SUMMIT    CLOUDY    41  38  89 SE6       29.97F
OLATHE - IXD   CLOUDY    41  39  93 SE6       29.96S
OLATHE - OJC   CLOUDY    41  40  96 SE5       29.96S
LAWRENCE       CLEAR     32  32 100 CALM      29.96F FOG

$$

MOZ001>008-011>017-020>025-030>033-038>040-044>046-053-054-190500-
...NORTHERN AND CENTRAL MISSOURI...

CITY           SKY/WX    TMP DP  RH WIND       PRES   REMARKS
ST. JOSEPH     CLEAR     37  36  96 S7        29.96F WCI  32
MOSBY          PTCLDY    32  32 100 CALM      29.98F
WARRENSBURG    CLOUDY    41  36  81 CALM      29.98F
WHITEMAN AFB   MOCLDY    42  41  99 SE7       29.97F
CLINTON        CLOUDY    45  39  81 CALM      29.99S
SEDALIA        CLOUDY    45  38  76 SE5       30.00F
WARSAW         NOT AVBL
CHILLICOTHE      N/A     35  34  96 CALM      30.00S
KIRKSVILLE     CLOUDY    31  31 100 SE3       30.01S FOG

$$

MOZ041-047>049-056>058-063>065-088>090-097-190500-
...EASTERN AND SOUTHERN MISSOURI...

CITY           SKY/WX    TMP DP  RH WIND       PRES   REMARKS
ST. LOUIS INTL CLOUDY    44  36  73 S6        30.06F
SPIRIT OF STL  CLOUDY    43  38  82 E3        30.05F
COLUMBIA       CLOUDY    45  35  68 SE7       30.01F
JEFFERSON CITY CLOUDY    47  36  65 E7        30.02F
ROLLA          CLOUDY    44  38  79 S9        30.01F
OSAGE BEACH    CLOUDY    46  40  79 S9        30.01F
SPRINGFIELD    CLOUDY    43  41  93 SE14      29.98F FOG
BRANSON        CLOUDY    41  41 100 SE7       30.01F FOG
JOPLIN         CLOUDY    46  45  96 SE9       29.97F
WEST PLAINS    CLOUDY    41  40  96 CALM      30.05S

$$

IAZ060-094-KSZ022-034>040-054-083-096-NEZ052-066-093-190500-
...KANSAS...SOUTHEAST NEBRASKA AND IOWA...

CITY           SKY/WX    TMP DP  RH WIND       PRES   REMARKS
TOPEKA         PTCLDY    37  33  85 E3        29.95S
MANHATTAN      CLOUDY    43  34  70 CALM      29.92S
EMPORIA        CLOUDY    42  38  85 S10       29.92F
CHANUTE        CLOUDY    47  42  83 S7        29.95F
WICHITA        CLOUDY    46  39  76 S9        29.91F
OMAHA          CLEAR     40  34  79 S12       29.89S WCI  33
LINCOLN        CLEAR     40  32  73 S14       29.88F WCI  32
FALLS CITY     PTCLDY    34  32  92 CALM      29.93S
LAMONI         FOG       36  35  96 S7        29.96F VSB 1/4 WCI  30
DES MOINES     FOG       35  34  96 S10       29.96S VSB 1/2 WCI  27

$$





USA.gov is the U.S. government's official web portal to all federal, state and local government web resources and services.